Date String (YYYY-MM-DD hh:mm:ss) UTC,Instrument flags,Ambient pressure (hPa),Sample flow (lpm),Bypass flow (lpm),Sample temperature (°C),Ambient temperature (°C),ASC tube jacket temperature (°C),LED temperature (°C),Box temperature (°C),Sample RH (%),Span deviation,Mass concentration (μg/m³),Mass concentration (μg/m³),Mass concentration (μg/m³)
DateTimeUTC,F1_M11,P_M11,Q1_M11,Q2_M11,T1_M11,T2_M11,T3_M11,T4_M11,T5_M11,U1_M11,ZSPAN_M11,X2_M11,X0_M11,X1_M11
2022-12-25 12:00:00,,0826.9,5.03,0.00,22.0,20.6,00.0,30.9,23.8,13.7,0000.0,0005.00,0007.87,0004.82
2022-12-25 12:01:00,,0826.9,4.98,0.00,22.0,20.5,00.0,30.9,23.7,13.7,0000.0,0004.96,0007.80,0004.80
2022-12-25 12:02:00,,0827.0,5.01,0.00,22.0,20.5,00.0,30.9,23.7,13.7,0000.0,0004.93,0007.78,0004.79
2022-12-25 12:03:00,,0827.1,5.03,0.00,22.0,20.5,00.0,30.9,23.7,13.8,0000.0,0004.90,0007.74,0004.78
2022-12-25 12:04:00,,0826.9,4.99,0.00,22.0,20.5,00.0,30.9,23.7,13.8,0000.0,0004.86,0007.69,0004.75
2022-12-25 12:05:00,,0826.9,4.98,0.00,22.0,20.5,00.0,30.9,23.7,13.8,0000.0,0004.84,0007.72,0004.71
2022-12-25 12:06:00,,0826.9,4.99,0.00,22.0,20.4,00.0,30.8,23.7,13.8,0000.0,0004.83,0007.73,0004.69
2022-12-25 12:07:00,,0826.7,5.01,0.00,22.0,21.0,00.0,30.8,23.8,13.8,0000.0,0004.82,0007.69,0004.68
2022-12-25 12:08:00,,0826.7,5.02,0.00,22.1,22.0,00.0,30.8,24.0,13.7,0000.0,0004.83,0007.91,0004.67
2022-12-25 12:09:00,,0826.7,4.98,0.00,22.2,22.3,00.0,30.8,24.2,13.7,0000.0,0004.81,0008.07,0004.64
2022-12-25 12:10:00,,0826.7,4.98,0.00,22.2,22.0,00.0,30.9,24.1,13.6,0000.0,0004.78,0007.83,0004.60
2022-12-25 12:11:00,,0826.7,5.04,0.00,22.2,21.7,00.0,30.9,24.1,13.5,0000.0,0004.78,0007.64,0004.58
2022-12-25 12:12:00,,0826.7,5.03,0.00,22.2,21.4,00.0,30.9,24.0,13.5,0000.0,0004.77,0007.58,0004.57
2022-12-25 12:13:00,,0826.7,4.97,0.00,22.2,21.2,00.0,31.0,24.0,13.5,0000.0,0004.73,0007.48,0004.55
2022-12-25 12:14:00,,0826.7,4.97,0.00,22.2,21.1,00.0,31.0,24.0,13.5,0000.0,0004.69,0007.50,0004.50
2022-12-25 12:15:00,,0826.7,5.02,0.00,22.2,21.0,00.0,31.0,23.9,13.5,0000.0,0004.63,0007.42,0004.43
2022-12-25 12:16:00,,0826.7,5.03,0.00,22.2,21.0,00.0,31.0,23.9,13.5,0000.0,0004.54,0007.90,0004.36
2022-12-25 12:17:00,,0826.7,4.99,0.00,22.2,20.9,00.0,31.0,23.9,13.5,0000.0,0004.43,0007.88,0004.27
2022-12-25 12:18:00,,0826.7,4.98,0.00,22.2,20.9,00.0,31.0,23.9,13.6,0000.0,0004.33,0007.77,0004.16
2022-12-25 12:19:00,,0826.5,5.00,0.00,22.1,20.8,00.0,31.0,23.8,13.6,0000.0,0004.24,0007.52,0004.07
2022-12-25 12:20:00,,0826.5,5.03,0.00,22.1,20.7,00.0,31.0,23.8,13.6,0000.0,0004.14,0007.19,0003.95
2022-12-25 12:21:00,,0826.5,5.01,0.00,22.1,20.6,00.0,31.0,23.8,13.6,0000.0,0004.06,0007.60,0003.88
2022-12-25 12:22:00,,0826.5,4.96,0.00,22.1,20.6,00.0,31.0,23.8,13.6,0000.0,0003.95,0008.45,0003.77
2022-12-25 12:23:00,,0826.5,5.03,0.00,22.0,20.5,00.0,30.9,23.7,13.6,0000.0,0003.85,0008.62,0003.66
2022-12-25 12:24:00,,0826.5,5.02,0.00,22.0,20.4,00.0,30.9,23.7,13.7,0000.0,0003.73,0008.67,0003.52
2022-12-25 12:25:00,,0826.4,5.02,0.00,22.0,20.4,00.0,30.9,23.7,13.8,0000.0,0003.61,0008.63,0003.40
2022-12-25 12:26:00,,0826.2,4.98,0.00,22.0,20.3,00.0,30.9,23.6,13.8,0000.0,0003.56,0008.53,0003.36
2022-12-25 12:27:00,,0826.2,4.97,0.00,21.9,20.3,00.0,30.9,23.6,13.7,0000.0,0003.57,0008.02,0003.38
2022-12-25 12:28:00,,0826.2,4.99,0.00,21.9,20.2,00.0,30.9,23.5,13.8,0000.0,0003.59,0007.86,0003.38
2022-12-25 12:29:00,,0826.2,5.04,0.00,21.8,20.1,00.0,30.9,23.4,13.9,0000.0,0003.55,0007.82,0003.35
2022-12-25 12:30:00,,0826.2,5.02,0.00,21.8,20.1,00.0,30.8,23.4,13.9,0000.0,0003.45,0007.67,0003.27
2022-12-25 12:31:00,,0826.3,4.99,0.00,21.9,20.7,00.0,30.7,23.6,13.9,0000.0,0003.40,0007.57,0003.23
2022-12-25 12:32:00,,0826.4,4.96,0.00,21.9,21.7,00.0,30.7,23.8,13.8,0000.0,0003.33,0007.21,0003.18
2022-12-25 12:33:00,,0826.3,5.02,0.00,22.0,21.9,00.0,30.8,23.9,13.7,0000.0,0003.28,0005.73,0003.15
2022-12-25 12:34:00,,0826.4,5.04,0.00,22.0,21.5,00.0,30.8,23.9,13.8,0000.0,0003.21,0004.23,0003.08
2022-12-25 12:35:00,,0826.4,4.97,0.00,22.0,21.1,00.0,30.8,23.7,14.0,0000.0,0003.10,0004.41,0002.91
2022-12-25 12:36:00,,0826.4,4.97,0.00,22.0,20.8,00.0,30.8,23.6,14.2,0000.0,0002.94,0004.11,0002.74
2022-12-25 12:37:00,,0826.4,5.01,0.00,21.9,20.7,00.0,30.8,23.5,14.0,0000.0,0002.75,0003.92,0002.55
2022-12-25 12:38:00,,0826.3,5.01,0.00,21.9,20.5,00.0,30.8,23.4,13.9,0000.0,0002.51,0003.64,0002.32
2022-12-25 12:39:00,,0826.2,5.00,0.00,21.8,20.4,00.0,30.8,23.4,13.9,0000.0,0002.21,0003.27,0002.07
2022-12-25 12:40:00,,0826.2,4.97,0.00,21.8,20.3,00.0,30.8,23.4,14.0,0000.0,0002.04,0003.08,0001.90
2022-12-25 12:41:00,,0826.1,4.97,0.00,21.8,20.2,00.0,30.8,23.4,14.0,0000.0,0001.95,0003.05,0001.77
2022-12-25 12:42:00,,0826.0,5.01,0.00,21.8,20.2,00.0,30.8,23.4,14.0,0000.0,0001.81,0002.90,0001.65
2022-12-25 12:43:00,,0825.8,5.02,0.00,21.7,20.1,00.0,30.7,23.3,14.3,0000.0,0001.66,0002.75,0001.51
2022-12-25 12:44:00,,0825.8,5.00,0.00,21.7,20.0,00.0,30.7,23.3,14.5,0000.0,0001.46,0002.56,0001.30
2022-12-25 12:45:00,,0825.9,4.97,0.00,21.7,19.9,00.0,30.7,23.2,14.5,0000.0,0001.24,0002.34,0001.08
2022-12-25 12:46:00,,0825.7,5.00,0.00,21.6,19.8,00.0,30.7,23.1,14.8,0000.0,0001.16,0001.93,0001.01
2022-12-25 12:47:00,,0825.6,5.03,0.00,21.5,19.7,00.0,30.7,23.0,14.8,0000.0,0001.16,0001.51,0001.01
2022-12-25 12:48:00,,0825.6,5.00,0.00,21.5,19.8,00.0,30.6,23.0,15.0,0000.0,0001.11,0001.44,0000.97
2022-12-25 12:49:00,,0825.5,5.02,0.00,21.6,20.9,00.0,30.5,23.3,14.9,0000.0,0000.98,0001.32,0000.84
2022-12-25 12:50:00,,0825.5,4.98,0.00,21.7,21.9,00.0,30.5,23.6,14.8,0000.0,0000.89,0001.25,0000.75
2022-12-25 12:51:00,,0825.5,4.99,0.00,21.8,21.7,00.0,30.6,23.7,14.7,0000.0,0000.84,0001.19,0000.69
2022-12-25 12:52:00,,0825.5,5.02,0.00,21.8,21.3,00.0,30.6,23.6,14.7,0000.0,0000.79,0001.14,0000.66
2022-12-25 12:53:00,,0825.6,5.02,0.00,21.8,21.0,00.0,30.6,23.5,14.8,0000.0,0000.70,0001.01,0000.60
2022-12-25 12:54:00,,0825.6,4.96,0.00,21.8,20.8,00.0,30.6,23.5,15.0,0000.0,0000.65,0000.94,0000.55
2022-12-25 12:55:00,,0825.6,4.98,0.00,21.8,20.7,00.0,30.6,23.5,15.3,0000.0,0000.63,0000.91,0000.53
2022-12-25 12:56:00,,0825.6,5.02,0.00,21.8,20.6,00.0,30.7,23.5,15.1,0000.0,0000.60,0000.89,0000.50
2022-12-25 12:57:00,,0825.6,5.02,0.00,21.8,20.6,00.0,30.6,23.5,15.2,0000.0,0000.58,0000.85,0000.49
2022-12-25 12:58:00,,0825.6,5.01,0.00,21.8,20.5,00.0,30.6,23.5,15.2,0000.0,0000.51,0000.67,0000.46
2022-12-25 12:59:00,,0825.5,4.98,0.00,21.8,20.5,00.0,30.6,23.4,15.1,0000.0,0000.51,0000.71,0000.44
